Regional Weather Roundup
Issued by NWS

Home | Current Version | Previous Version | Graphics & Text | Print | Product List | Glossary On
Versions: 1 2 3 4 5 6 7 8 9 10 11 12 13 14 15 16 17 18 19 20 21 22 23 24 25 26 27 28 29 30 31 32 33 34 35 36 37 38 39 40 41 42 43 44 45 46 47 48 49 50
000
ASUS43 KOAX 281910
RWRNE

WEATHER ROUNDUP FOR NEBRASKA
NATIONAL WEATHER SERVICE OMAHA NE
100 PM CST SUN DEC 28 2014

NOTES: SATELLITE DATA IS BEING USED TO AUGMENT CLOUD COVER ABOVE
       12000 FEET.
       "FAIR" INDICATES FEW OR NO CLOUDS BELOW 12,000 FEET WITH NO
       SIGNIFICANT WEATHER AND/OR OBSTRUCTIONS TO VISIBILITY.

  * THESE STATIONS DO NOT REPORT WEATHER SUCH AS RAIN...SNOW OR FOG.

NEZ001>004-019>022-054>056-282000-
NEBRASKA PANHANDLE

CITY           SKY/WX    TMP DP  RH WIND       PRES   REMARKS
SCOTTSBLUFF    CLOUDY    22  16  78 SE7       29.90F WCI  13
ALLIANCE       FLURRIES  30  21  69 W22       29.90F WCI  17
CHADRON        CLOUDY    21  12  68 N6        29.93F WCI  13
KIMBALL        CLOUDY    29  14  53 S3        29.86F
SIDNEY         CLOUDY    27  13  55 W7        29.91F WCI  19
$$

NEZ057>060-069>072-079>082-282000-
SOUTHWEST NEBRASKA

CITY           SKY/WX    TMP DP  RH WIND       PRES   REMARKS
NORTH PLATTE   MOSUNNY   22  12  65 CALM      30.01F
IMPERIAL       PTSUNNY   24  12  60 NE3       29.96F
LEXINGTON      CLOUDY    23  16  74 S5        30.03F WCI  17
MCCOOK         PTSUNNY   24  14  65 N3        30.02F
OGALLALA       CLOUDY    22  13  71 CALM      29.96F
$$

NEZ005>010-023>029-035>040-094-282000-
NORTH CENTRAL NEBRASKA

CITY           SKY/WX    TMP DP  RH WIND       PRES   REMARKS
VALENTINE      PTSUNNY   20  10  65 S7        30.01F WCI  11
AINSWORTH      PTSUNNY   20  11  69 CALM      30.01F
BROKEN BOW     CLOUDY    24  15  68 CALM      30.01F
O`NEILL        PTSUNNY   18  13  79 CALM      30.06F
ORD            PTSUNNY   21  12  68 CALM      30.04F
THEDFORD       CLOUDY    26  15  62 CALM      29.98F
$$

NEZ041-046>049-061>064-073>077-083>087-282000-
SOUTH CENTRAL NEBRASKA

CITY           SKY/WX    TMP DP  RH WIND       PRES   REMARKS
GRAND ISLAND   MOSUNNY   26  14  60 CALM      30.08F
AURORA         MOSUNNY   26  16  66 CALM      30.08F
HASTINGS       MOSUNNY   26  16  65 CALM      30.05F
HEBRON         MOSUNNY   34  20  57 W7        30.10F WCI  28
HOLDREGE       PTSUNNY   24  15  68 CALM      30.04F
KEARNEY *      MOSUNNY   25  12  58 CALM      30.06F
YORK           MOSUNNY   25  18  74 CALM      30.09F
$$

NEZ011>018-030>034-042>045-282000-
NORTHEAST NEBRASKA

CITY           SKY/WX    TMP DP  RH WIND       PRES   REMARKS
NORFOLK        PTSUNNY   21  13  71 CALM      30.08F
ALBION         PTSUNNY   24  13  64 CALM      30.08S
BLAIR          SUNNY     28  20  71 CALM      30.10F
COLUMBUS *     MOSUNNY   23  10  58 CALM      30.11F
FREMONT        SUNNY     24  16  72 CALM      30.12F
TEKAMAH        SUNNY     27  17  66 N3        30.13F
WAYNE          MOSUNNY   19  13  75 N3        30.11F
$$

NEZ050>053-065>068-078-088>093-282000-
SOUTHEAST NEBRASKA

CITY           SKY/WX    TMP DP  RH WIND       PRES   REMARKS
LINCOLN        SUNNY     31  17  56 CALM      30.13F
OMAHA EPPLEY   PTSUNNY   29  19  66 VRB3      30.14F
BEATRICE       SUNNY     37  23  58 SW8       30.11F WCI  30
FALLS CITY     SUNNY     39  21  48 SW10      30.13F WCI  32
NEBRASKA CITY  SUNNY     35  20  55 SW8       30.12F WCI  28
PLATTSMOUTH    SUNNY     32  21  64 S5        30.12F WCI  27
$$

NEZ044-045-051>053-067-282000-
OMAHA AREA

CITY           SKY/WX    TMP DP  RH WIND       PRES   REMARKS
OMAHA EPPLEY   PTSUNNY   29  19  66 VRB3      30.14F
BLAIR          SUNNY     28  20  71 CALM      30.10F
FREMONT        SUNNY     24  16  72 CALM      30.12F
MILLARD        SUNNY     31  18  57 CALM      30.13F
OFFUTT AFB     SUNNY     30  20  67 SW3       30.13F
PLATTSMOUTH    SUNNY     32  21  64 S5        30.12F WCI  27
WAHOO          FAIR      27  17  63 CALM      30.12F
$$


USA.gov is the U.S. government's official web portal to all federal, state and local government web resources and services.